User: anonymous
Location: Balls_Creek
(35.6670°N, 81.1170°W)
Time: 02:18:36
(UTC-04:00)
Language:

Iridium 42 - Orbit

View from above orbital plane
View from above orbital plane
View from above satellite
View from above satellite

Ground track
Ground track

The orbit data is extracted from the following two-line orbital elements,

1 25077U 97077A   14265.46256591  .00000184  00000-0  58505-4 0  9672
2 25077 086.3931 079.4562 0002077 108.0103 252.1319 14.34231439879028
Epoch (UTC): 22 September 2014 11:06:05
Eccentricity: 0.0002077
inclination: 86.3931°
perigee height: 776 km
apogee height: 779 km
right ascension of ascending node: 79.4562°
argument of perigee: 108.0103°
revolutions per day: 14.34231439
mean anomaly at epoch: 252.1319°
orbit number at epoch: 87902

The dashed part of the orbit path shows where the satellite is in the earth's shadow,  

DLR